Weather History for Concord, NH

Change the Weather History Date:

Saturday, February 2, 2013

  Actual Average Record
Temperature  
Mean Temperature 19 °F 22 °F  
Max Temperature 26 °F 32 °F 52 °F (1981)
Min Temperature 11 °F 11 °F -28 °F (1874)
Degree Days  
Heating Degree Days 46 43  
Month to date heating degree days 88 87  
Since 1 July heating degree days 3907 4209  
Cooling Degree Days 0 0  
Month to date cooling degree days 0 0  
Year to date cooling degree days 0 0  
Moisture  
Dew Point 4 °F    
Average Humidity 55    
Maximum Humidity 73    
Minimum Humidity 36    
Precipitation  
Precipitation 0.00 in 0.09 in 1.30 in (1973)
Month to date precipitation T 0.18  
Year to date precipitation 1.55 2.88  
Snow  
Snow 0.00 in 0.50 in 8.40 in (1967)
Month to date snowfall 0.0 1.0  
Since 1 July snowfall 23.6 36.2  
Snow Depth T in    
Sea Level Pressure  
Sea Level Pressure 30.11 in    
Wind  
Wind Speed 6 mph (SW)    
Max Wind Speed 14 mph    
Max Gust Speed 20 mph    
Visibility 10 miles    
Events      
T = Trace of Precipitation, MM = Missing Value Source: NWS Daily Summary

Daily Weather History Graph

Daily Weather History Graph

Search for Another Location

Airport:

Trip Planner

Search our weather history database for the weather conditions in past years. The results will help you decide how hot, cold, wet, or windy it might be!

Date:

Astronomy

Feb. 02, 2013 Rise Set
Actual Time 7:00 AM EST 4:59 PM EST
Civil Twilight 6:30 AM EST 5:30 PM EST
Nautical Twilight 5:56 AM EST 6:04 PM EST
Astronomical Twilight 5:22 AM EST 6:37 PM EST
Moon No Moon Rise 9:56 AM EST (2/2)
Length of Visible Light 10h 59m
Length of Day
9h 59m
Waning Gibbous, 60% of the Moon is Illuminated
Feb 2
Waning Gibbous
Feb 3
Last Quarter
Feb 10
New
Feb 17
First Quarter
Feb 25
Full

Hourly Weather History & Observations

Time (EST) Temp. Windchill Dew Point Humidity Pressure Visibility Wind Dir Wind Speed Gust Speed Precip Events Conditions
12:51 AM 16.0 °F 7.4 °F 3.9 °F 59% 30.08 in 10.0 mi WNW 5.8 mph - N/A   Clear
1:51 AM 16.0 °F 8.8 °F 1.9 °F 54% 30.11 in 10.0 mi West 4.6 mph - N/A   Clear
2:51 AM 16.0 °F 2.9 °F 1.9 °F 54% 30.12 in 10.0 mi WNW 11.5 mph 19.6 mph N/A   Clear
3:51 AM 15.1 °F 5.2 °F 1.9 °F 56% 30.13 in 10.0 mi West 6.9 mph - N/A   Clear
4:51 AM 14.0 °F 5.1 °F 5.0 °F 67% 30.16 in 10.0 mi NW 5.8 mph - N/A   Clear
5:51 AM 12.9 °F 1.6 °F 3.0 °F 65% 30.18 in 10.0 mi NNW 8.1 mph - N/A   Clear
6:51 AM 10.9 °F - 3.0 °F 70% 30.19 in 10.0 mi Calm Calm - N/A   Clear
7:51 AM 14.0 °F - 3.9 °F 64% 30.21 in 10.0 mi Calm Calm - N/A   Clear
8:51 AM 17.1 °F 10.0 °F 3.9 °F 56% 30.22 in 10.0 mi WSW 4.6 mph - N/A   Clear
9:51 AM 19.9 °F 10.1 °F 1.0 °F 44% 30.22 in 10.0 mi SW 8.1 mph - N/A   Clear
10:51 AM 21.9 °F 13.4 °F 1.0 °F 40% 30.19 in 10.0 mi WNW 6.9 mph - N/A   Clear
11:51 AM 21.9 °F 13.4 °F 1.9 °F 42% 30.16 in 10.0 mi SW 6.9 mph - N/A   Mostly Cloudy
12:51 PM 24.1 °F 17.0 °F 1.9 °F 38% 30.13 in 10.0 mi WSW 5.8 mph - N/A   Partly Cloudy
1:51 PM 25.0 °F 17.1 °F 1.9 °F 37% 30.10 in 10.0 mi South 6.9 mph - N/A   Partly Cloudy
2:51 PM 26.1 °F 16.8 °F 3.0 °F 37% 30.08 in 10.0 mi South 9.2 mph - N/A   Overcast
3:51 PM 26.1 °F 16.2 °F 3.0 °F 37% 30.06 in 10.0 mi SSW 10.4 mph - N/A   Overcast
4:51 PM 25.0 °F 20.7 °F 3.9 °F 41% 30.05 in 10.0 mi SSW 3.5 mph - N/A   Overcast
5:51 PM 25.0 °F 19.3 °F 5.0 °F 43% 30.05 in 10.0 mi South 4.6 mph - N/A   Overcast
6:51 PM 24.1 °F - 6.1 °F 46% 30.05 in 10.0 mi Calm Calm - N/A   Overcast
7:51 PM 24.8 °F 19.1 °F 6.8 °F 46% 30.02 in 10.0 mi South 4.6 mph - N/A   Overcast
8:51 PM 25.0 °F 18.1 °F 5.0 °F 43% 30.04 in 10.0 mi SSW 5.8 mph - N/A   Overcast
9:51 PM 25.0 °F 18.1 °F 7.0 °F 46% 30.04 in 10.0 mi SW 5.8 mph - N/A   Overcast
10:51 PM 25.0 °F 19.3 °F 8.1 °F 49% 30.03 in 10.0 mi WSW 4.6 mph - N/A   Overcast
11:51 PM 24.1 °F 16.0 °F 10.9 °F 57% 30.04 in 10.0 mi SW 6.9 mph - N/A   Overcast